Location: Cul de Sac
(18.0387°N, 63.0654°W)
Time: 17:56:50
(UTC+00:00)

IUS-14 SRM-1 - Pass Details

Date: 29 October 2020
Orbit: 396 x 34418 km, 26.5° (Epoch: 26 November)

Event Time Altitude Azimuth Distance (km) Brightness Sun altitude
Rises 22:47:31 0° 256° (WSW) 7,684 10.4 -16.3°
Reaches altitude 10° 22:55:12 10° 260° (W) 4,200 8.6 -18.1°
Maximum altitude 23:02:47 53° 337° (NNW) 782 3.6 -19.8°
Enters shadow 23:03:40 40° 27° (NNE) 826 3.4 -20.1°
